Temp
19 18 18 18 18 19 19 19 19 19 19 19 19 19 19 20 20 20 20 20 20 20 19 19 19 19 18 18 18 18 19 18 18 18 18 17 17 17 18 18 18 18 18 17 18 18 18 18 18 18 19 20 20 20 20 20 19 19 19 19 20 20 20 20 20 20 20 20 20 20 20 20 20 20 19 19 19 19 18 18 18 18 18 18 18 18
18 18 19 19 19 19 19 19 19 19 19 19 19 20 20 20 20 20 20 20 20 20 18 18 19 18 18 18 18 18 19 19 18 18 18 17 17 17 18 18 18 18 18 18 18 18 17 18 18 17 18 19 19 19 20 20 20 20 20 20 20 20 20 20 20 20 20 20 20 20 20 20 20 20 20 19 19 19 18 18 18 18 18 18 18 18
18 19 19 19 19 19 19 19 19 19 19 19 19 20 20 20 20 20 20 20 20 20 19 18 19 18 18 18 18 18 19 19 18 18 18 18 17 17 18 18 18 18 18 18 18 17 17 17 17 17 17 17 18 19 20 20 20 20 19 19 20 20 20 20 20 20 20 20 20 20 20 20 20 20 20 19 19 19 18 18 18 18 18 18 18 17
19 19 18 19 19 19 19 20 19 19 19 19 19 20 20 19 20 20 20 19 20 20 19 18 19 18 18 18 18 18 19 19 18 18 19 18 18 18 18 18 18 18 18 18 18 17 17 17 17 17 17 17 18 19 19 19 19 19 19 19 19 19 20 20 20 20 20 20 20 20 20 20 20 20 19 19 19 19 19 18 18 18 18 18 18 17
19 18 18 19 20 19 20 20 19 19 19 20 20 20 20 20 19 19 19 19 19 19 19 19 19 19 18 18 18 18 18 19 18 18 18 18 18 19 18 18 18 18 18 18 18 17 17 17 17 17 18 18 18 18 19 19 19 19 19 19 19 19 20 20 20 20 20 20 20 20 20 20 19 19 19 19 18 18 18 18 18 18 18 18 18 18
19 19 18 19 20 19 19 19 19 19 19 20 21 21 21 20 19 19 19 20 20 20 19 20 20 20 19 18 19 18 18 18 18 18 18 18 18 18 18 18 18 18 18 18 18 17 17 17 17 17 18 18 18 18 19 19 19 19 19 19 19 19 19 20 20 20 20 20 20 20 20 19 19 19 19 19 19 19 18 18 18 18 18 18 18 18
20 19 19 19 19 20 19 19 20 20 20 20 21 21 21 20 19 19 20 20 20 19 20 20 20 20 19 19 19 19 18 18 18 18 18 18 18 18 18 18 18 18 18 18 18 17 17 17 17 17 17 17 17 18 19 19 18 19 19 19 19 19 19 20 20 20 20 20 20 20 20 19 19 19 19 19 19 19 19 18 18 18 18 18 18 18
20 19 19 19 19 19 19 19 20 20 21 21 21 21 20 20 19 19 20 20 19 19 20 19 19 19 19 19 19 19 18 18 18 18 18 19 19 19 19 19 18 18 18 18 17 17 17 17 17 17 17 17 17 17 19 19 18 19 19 19 19 19 19 20 20 20 20 20 20 20 20 19 19 19 19 19 19 19 19 18 18 18 18 18 18 18
21 19 20 20 19 19 19 21 21 20 21 20 20 20 19 19 19 19 19 19 18 19 20 18 18 18 19 19 19 18 18 19 19 19 19 19 19 19 19 19 18 18 18 18 17 17 18 17 17 17 17 17 17 18 18 18 19 19 19 19 19 19 19 19 19 20 20 20 20 20 20 19 19 19 19 19 19 19 19 19 18 18 18 18 18 18
22 22 21 20 20 20 21 22 21 21 21 20 20 20 19 19 18 18 18 18 18 20 19 18 18 18 18 19 18 19 19 19 20 20 20 20 20 20 19 18 18 17 18 18 18 18 18 18 17 18 17 17 18 18 18 17 18 18 18 19 19 19 19 20 19 20 20 20 20 20 20 20 19 19 19 19 19 19 18 18 18 18 18 18 18 18
22 23 23 22 22 23 23 22 21 21 21 21 20 19 19 19 18 18 18 18 19 20 19 19 19 19 19 19 18 19 19 19 19 20 20 20 20 20 19 19 17 17 18 18 18 19 18 17 17 18 18 17 17 17 17 17 17 17 18 19 19 19 20 20 20 20 20 20 20 20 20 19 19 19 19 19 19 19 18 18 18 18 18 18 18 18
23 23 23 23 24 24 23 22 21 21 22 21 20 19 19 19 19 19 18 18 19 19 19 19 19 19 19 19 19 19 19 19 19 20 20 21 20 19 19 19 18 17 18 18 18 18 17 17 17 17 17 17 17 16 17 17 17 17 18 19 19 20 20 20 20 20 20 20 20 20 19 19 19 19 19 19 19 19 19 18 18 18 18 18 18 17
22 23 23 24 24 24 23 22 21 22 22 21 20 20 20 19 19 19 18 18 18 18 19 19 19 19 19 19 19 18 19 19 19 20 20 20 20 19 19 20 18 18 18 18 18 17 17 16 16 17 17 17 17 17 17 17 18 18 19 19 20 20 20 20 20 20 20 20 20 20 19 19 19 19 19 19 19 19 19 19 19 18 18 18 18 18
22 22 23 23 24 24 23 22 21 21 21 21 21 20 20 19 19 19 18 18 18 18 19 19 19 19 19 19 18 18 18 19 19 20 20 20 19 19 19 19 19 18 18 18 18 17 16 16 16 16 17 17 17 17 17 18 18 19 19 19 20 20 19 20 20 20 20 20 20 19 19 19 19 19 19 19 19 19 19 19 19 19 19 18 18 18
21 21 22 22 23 24 24 23 22 22 21 21 21 21 20 20 20 20 19 19 19 19 19 19 19 19 19 18 18 18 19 19 19 19 19 19 19 19 19 19 18 18 18 18 17 17 17 17 17 17 17 16 16 16 17 18 18 19 19 19 19 20 20 19 19 19 20 20 20 19 19 19 19 19 19 19 19 19 19 19 19 19 19 19 19 18
20 21 23 23 24 24 24 23 23 22 21 20 20 20 20 21 20 20 20 19 19 19 19 19 19 19 19 18 18 18 19 19 19 19 19 18 18 18 18 18 18 18 18 18 18 17 17 16 17 17 17 16 16 17 18 18 18 19 19 19 19 19 20 19 19 19 20 20 19 19 19 19 19 19 19 19 19 19 19 19 19 19 19 19 19 19
20 21 24 24 24 24 24 24 23 22 22 20 19 20 21 22 21 20 19 19 19 19 19 19 19 19 19 18 19 19 19 19 19 19 18 18 17 18 18 17 18 18 18 18 18 17 17 17 17 17 17 17 17 17 18 18 18 18 19 19 19 19 19 19 19 19 19 19 19 19 19 19 19 19 19 19 19 19 19 19 19 19 19 19 19 19
21 21 24 24 23 24 24 24 23 23 23 21 20 22 22 22 22 21 20 20 19 19 19 19 19 19 19 19 19 19 19 19 19 18 18 18 18 18 18 18 18 18 17 17 17 17 17 17 17 17 17 17 17 17 17 18 18 18 18 19 19 19 19 19 19 19 19 19 19 19 19 19 19 19 19 20 20 19 20 20 19 19 19 19 19 19
22 21 23 24 24 24 25 24 22 22 23 22 21 22 21 21 21 20 20 20 20 19 19 19 19 18 18 18 19 19 19 18 18 18 18 18 18 18 18 18 18 17 17 17 17 17 17 17 17 17 17 17 17 17 18 18 18 18 18 18 18 19 19 19 19 19 19 19 19 19 19 19 19 19 19 19 19 19 20 20 20 19 19 19 19 19
23 21 22 24 25 25 24 23 22 21 22 22 22 22 21 20 21 20 20 20 20 19 19 19 19 19 18 18 18 18 18 18 18 18 18 18 18 18 18 18 17 17 17 17 17 17 17 17 16 17 17 17 17 17 17 18 18 18 18 18 18 18 18 18 18 18 18 18 18 18 18 19 19 19 19 19 19 19 19 19 19 19 19 19 19 19
23 22 21 23 24 23 23 23 22 22 22 22 22 21 21 21 21 21 20 20 20 20 19 19 19 18 18 18 18 18 18 18 18 18 18 18 18 18 18 18 17 17 17 17 17 17 17 16 16 17 17 17 17 17 17 17 17 18 18 18 18 18 18 18 18 18 18 18 18 18 18 18 18 19 19 18 18 18 19 19 19 19 19 19 19 19
23 22 21 22 22 22 23 25 24 23 23 23 22 22 21 21 21 21 20 20 20 20 20 19 19 18 18 18 17 18 18 18 18 18 18 18 18 18 18 18 17 17 17 17 17 17 17 16 16 17 17 17 17 17 17 17 17 17 17 17 17 17 17 17 17 17 17 18 18 18 18 18 18 18 18 18 17 18 18 18 18 18 18 18 19 19
24 23 21 21 22 23 24 25 25 24 23 23 23 23 22 21 21 21 20 20 20 20 19 19 19 19 19 18 17 18 18 18 18 18 18 18 18 18 18 18 17 17 17 17 17 17 16 16 16 16 17 17 17 17 17 17 17 17 17 17 17 17 17 17 17 17 16 17 17 17 17 18 18 18 17 17 16 17 17 17 17 18 18 18 18 18
24 22 21 21 22 24 25 26 25 25 24 24 23 23 22 22 22 22 21 21 20 20 19 19 19 19 19 18 18 18 18 18 18 18 18 18 18 18 18 18 17 17 17 17 17 17 16 16 16 16 16 16 17 17 17 17 18 18 18 17 17 17 17 17 17 16 16 16 17 17 17 18 18 17 16 16 16 17 18 17 17 17 17 17 18 18
23 22 21 21 21 22 23 23 24 24 24 23 22 22 23 23 23 22 21 21 20 19 20 20 19 18 18 18 18 18 18 18 18 18 18 18 18 18 18 18 17 17 17 17 18 18 17 17 17 17 17 16 17 17 17 17 17 17 17 17 17 17 17 17 17 17 17 17 17 17 17 17 17 17 16 17 17 17 17 17 16 17 17 17 17 17
24 22 22 21 20 20 20 21 21 22 22 22 22 22 23 24 24 22 21 21 20 19 19 19 18 18 18 18 18 18 18 18 18 18 18 18 18 18 18 18 17 17 18 18 18 18 18 17 17 17 17 17 17 17 17 17 17 17 17 17 17 17 17 17 17 17 17 17 16 16 16 16 16 17 17 17 17 17 17 17 17 17 17 17 17 17
24 22 22 21 21 21 21 21 22 22 21 21 21 21 23 24 24 22 21 21 20 19 18 18 18 18 18 18 18 18 18 18 18 18 18 18 18 18 18 18 17 17 18 18 18 18 18 18 17 17 18 18 18 18 18 18 18 18 17 17 17 17 17 17 17 17 16 16 16 16 16 16 16 17 17 17 17 17 17 17 17 17 17 17 17 17
23 22 22 22 22 22 22 22 22 22 21 20 20 21 22 23 23 23 21 21 20 19 18 18 19 19 18 18 18 18 18 19 18 18 18 18 18 18 18 18 18 18 18 18 18 18 18 18 18 17 18 18 18 18 18 18 18 18 18 17 17 17 17 17 16 16 16 16 16 17 17 17 17 17 17 17 17 17 17 17 17 16 16 16 16 16
23 22 22 22 21 21 22 22 21 21 21 21 21 21 22 22 23 22 21 20 20 20 19 18 19 19 18 18 18 18 19 19 18 18 18 18 18 18 18 18 18 18 18 18 18 18 18 19 18 17 18 18 19 19 18 18 18 18 18 17 17 17 17 17 17 17 17 17 17 17 18 18 17 17 17 17 17 17 16 16 16 16 16 16 16 15
23 22 23 23 21 21 21 21 21 21 21 21 21 22 22 22 22 21 20 20 20 20 19 18 19 18 19 19 18 18 19 19 19 19 19 18 18 18 18 18 18 18 18 18 18 18 18 19 18 17 18 18 18 19 18 18 18 18 18 17 17 17 17 17 17 17 17 17 17 17 17 17 17 17 17 17 17 16 16 16 16 16 16 16 15 16
22 22 22 23 21 21 21 21 21 21 22 21 21 22 21 21 20 20 20 19 19 19 18 19 18 18 19 19 19 18 19 19 19 19 19 19 19 19 18 18 18 18 18 18 18 18 18 18 17 16 17 18 18 18 18 18 18 18 18 18 18 17 17 17 17 17 17 17 17 17 16 16 16 16 16 16 16 16 16 16 16 16 15 15 15 15
23 22 22 22 21 20 21 20 20 21 21 21 21 21 21 21 20 20 20 20 20 19 18 18 18 18 18 19 19 19 19 19 19 19 19 19 19 18 18 18 18 18 18 18 18 18 18 18 17 16 17 17 17 18 18 18 18 18 18 18 17 17 17 17 17 17 17 17 17 16 16 16 16 16 16 16 15 15 16 16 16 15 15 15 15 15
22 22 22 21 20 20 21 20 20 21 21 20 21 20 20 21 21 21 20 20 20 19 18 18 19 18 18 19 19 19 19 19 19 19 19 18 18 18 18 17 17 17 18 18 18 18 18 17 16 16 17 17 17 17 18 18 18 18 17 17 17 17 17 17 17 16 16 16 16 16 16 16 16 15 15 15 15 15 15 15 15 15 14 14 14 14
21 22 21 21 20 20 20 20 21 21 20 20 20 20 20 21 21 21 20 20 20 20 19 19 19 19 19 19 19 19 19 19 19 19 18 18 18 17 17 17 17 17 17 17 18 18 17 16 16 17 17 17 17 18 18 18 18 17 17 17 17 17 16 16 16 16 16 16 16 16 15 15 15 15 15 15 15 15 15 15 14 14 14 14 14 14
22 22 21 21 21 20 19 20 20 20 20 21 20 19 19 20 20 20 19 20 20 20 20 19 19 19 19 19 19 19 19 19 18 18 18 18 17 17 17 17 17 17 18 18 18 17 16 16 17 17 17 17 17 18 18 17 17 17 17 17 16 16 16 16 16 16 16 16 16 16 15 15 15 15 15 15 15 14 14 14 14 14 14 14 14 14
22 22 21 21 20 20 19 20 20 20 20 20 19 19 19 20 20 20 19 19 19 20 20 19 19 19 19 19 18 18 18 18 18 18 18 18 18 17 17 17 17 17 17 17 17 16 16 16 17 17 17 17 17 18 17 17 17 17 16 16 16 16 16 16 15 15 15 15 16 16 15 15 14 15 15 15 14 14 14 14 13 13 13 13 13 13
21 21 21 20 20 20 19 19 18 19 20 20 20 19 19 19 19 20 20 19 18 18 19 19 19 18 18 18 18 18 18 18 17 17 18 18 18 18 17 17 17 17 16 16 16 16 16 17 17 17 17 17 17 17 17 17 17 17 16 16 16 16 15 15 15 15 15 15 15 15 15 15 14 14 14 14 14 14 13 13 13 13 13 13 13 13
21 21 21 20 19 19 19 18 17 18 20 19 18 18 18 17 17 18 19 19 18 17 18 19 19 18 18 17 17 18 18 17 17 17 18 18 18 18 17 17 17 17 16 16 16 16 17 17 17 17 17 17 17 17 17 17 17 16 16 16 16 15 15 15 15 15 15 15 15 15 15 15 15 14 14 14 14 14 14 13 13 13 13 13 13 13
21 20 20 20 20 20 20 19 18 19 18 17 17 17 17 18 18 19 19 19 18 17 17 18 19 18 18 17 18 19 18 17 16 17 17 17 17 17 17 17 16 16 16 16 16 16 16 17 17 17 17 17 16 16 17 17 16 16 16 16 16 15 15 15 15 15 15 15 15 15 15 15 15 15 14 14 14 14 14 14 13 13 13 13 13 13
20 20 20 20 20 19 19 20 19 18 17 16 16 17 17 18 19 19 19 19 18 17 17 18 18 18 17 17 17 18 18 17 16 17 17 17 17 16 16 16 16 16 16 16 16 16 16 17 17 16 16 16 16 16 16 16 16 16 16 16 16 15 15 15 15 15 15 15 15 15 15 15 15 15 14 14 14 13 13 13 13 13 13 13 13 13
19 19 18 19 19 18 19 20 19 18 17 16 17 16 17 18 19 19 19 19 18 17 17 17 17 17 17 17 17 17 17 17 17 16 16 16 16 16 16 16 16 16 16 16 16 16 16 16 16 16 16 16 16 16 16 16 16 16 15 15 15 15 15 15 15 15 15 15 15 15 15 15 15 15 14 14 14 14 13 13 13 13 13 13 13 13
18 18 18 18 18 18 18 19 19 18 17 16 17 16 17 19 19 19 18 17 16 16 16 17 17 16 16 16 16 16 17 17 16 16 16 16 16 15 15 15 15 15 16 16 16 16 16 16 16 16 16 16 16 16 16 16 16 15 15 15 15 15 15 15 15 15 15 15 15 15 15 15 15 15 15 15 14 14 14 14 13 13 13 13 13 13
18 18 18 18 17 17 17 18 19 18 17 16 16 17 17 18 19 18 17 16 16 16 16 16 16 16 15 15 15 16 16 16 16 16 16 16 16 15 14 14 14 14 15 16 16 16 16 16 16 16 16 16 16 16 16 16 16 16 16 15 15 15 15 15 15 15 15 15 15 15 15 15 16 16 16 16 15 15 15 14 14 14 14 13 13 13
17 17 17 17 17 17 18 18 18 17 16 15 16 17 17 17 17 17 17 17 17 16 16 16 16 15 15 15 15 15 15 15 15 15 15 15 15 14 13 13 14 15 15 16 16 16 16 16 16 16 16 16 16 16 16 16 16 16 16 15 15 16 15 15 15 15 15 15 15 15 15 15 16 16 16 16 16 16 16 15 15 14 14 14 14 13
16 16 16 16 16 16 17 17 16 16 15 15 15 16 16 16 16 17 17 17 17 16 16 16 16 15 15 15 15 15 15 15 15 15 15 15 15 14 13 14 15 15 15 16 16 16 16 16 16 16 16 16 16 16 16 16 16 15 15 15 15 16 16 16 16 16 16 15 15 15 15 15 15 16 16 16 16 16 16 16 15 15 14 14 14 14
16 16 16 16 16 16 16 16 16 16 15 15 15 16 16 16 17 17 17 17 17 17 17 17 16 16 16 15 15 15 15 15 15 15 15 15 15 14 13 14 15 15 16 16 16 16 16 16 16 16 16 16 16 16 16 16 16 15 15 15 15 15 16 16 16 16 16 16 16 15 15 15 15 15 15 15 15 15 15 15 15 15 15 15 14 14
16 16 16 16 16 16 16 16 15 15 15 15 16 16 16 16 17 16 16 16 17 17 18 17 17 16 16 16 16 15 15 15 15 15 14 15 15 13 13 13 14 15 16 16 16 16 16 16 15 15 15 15 16 16 16 16 16 16 16 16 16 15 15 15 15 15 15 15 15 16 15 15 15 15 15 15 15 15 15 15 15 15 15 15 15 14
16 16 16 16 16 16 16 15 15 15 15 15 16 16 16 16 16 16 17 17 17 17 17 17 17 17 17 16 16 16 15 15 15 15 14 15 14 13 13 14 15 15 16 16 16 16 16 15 15 15 15 15 15 16 16 16 16 16 16 16 15 15 15 15 15 15 15 15 15 15 15 15 15 15 15 15 15 15 15 15 15 15 15 15 15 15
15 15 16 16 15 15 15 15 15 15 15 15 15 15 15 15 16 16 17 17 17 17 17 17 17 17 16 16 16 16 15 15 15 14 15 15 13 13 14 15 16 16 16 16 16 16 16 15 15 15 15 16 16 15 16 16 16 16 16 15 15 15 15 15 15 15 15 15 15 15 15 15 15 15 15 15 15 15 15 15 15 15 15 15 15 15
15 15 15 16 15 15 15 15 15 15 15 14 15 15 15 15 16 17 17 17 17 17 17 16 16 15 15 15 15 15 15 15 14 14 14 14 14 14 15 16 16 16 16 16 16 16 16 15 16 15 15 16 16 15 16 16 16 16 16 15 15 15 15 15 15 15 15 15 15 15 15 15 15 15 15 15 15 14 14 14 15 14 14 15 14 14
14 14 15 15 15 15 15 15 15 15 14 14 15 15 16 16 17 17 16 16 16 16 16 16 16 15 15 15 14 15 15 14 14 14 13 13 14 15 16 16 16 16 16 16 16 16 15 16 16 15 16 16 16 16 16 16 16 16 15 15 15 15 15 15 15 15 15 15 15 15 15 15 15 15 15 15 15 15 14 14 14 14 14 14 14 14
Height
763 769 772 771 770 765 764 764 763 764 764 767 770 770 769 768 767 762 758 756 754 760 766 764 762 764 763 761 760 758 756 758 760 761 762 762 761 762 762 764 766 768 769 769 768 771 775 774 776 781 778 777 779 780 781 783 786 788 790 791 793 795 797 798 800 802 803 804 805 807 808 809 810 811 811 812 812 813 813 814 814 814 814 814 814 814
766 772 770 764 764 761 760 761 761 763 764 767 769 767 766 768 766 762 758 757 753 759 768 764 762 766 764 762 761 759 759 760 762 763 764 763 763 764 765 767 769 769 768 769 770 774 778 778 780 784 782 779 780 780 781 783 785 788 789 791 793 795 797 798 800 801 802 804 804 806 807 808 809 810 811 811 811 812 813 813 814 814 814 814 814 813
769 769 764 759 759 759 759 760 761 764 765 767 768 765 767 767 765 762 758 757 754 758 767 765 765 769 766 763 763 761 760 761 762 762 763 764 764 765 766 767 767 765 766 768 771 775 778 780 783 785 783 782 782 781 782 783 785 787 789 791 792 795 796 798 800 801 802 803 804 805 806 807 808 809 810 810 811 812 813 813 814 814 814 814 814 814
772 769 763 757 757 759 760 759 760 764 765 766 766 765 768 766 766 767 762 759 757 758 765 766 766 769 767 764 765 764 761 762 763 762 762 763 763 765 765 765 763 763 765 769 772 776 777 780 784 782 780 780 781 782 782 783 785 787 789 791 792 794 796 798 799 801 802 803 804 805 806 807 807 809 809 810 811 812 812 813 813 813 813 813 813 814
770 766 760 755 755 758 760 760 762 767 768 764 761 762 765 765 766 767 763 760 760 761 762 764 767 768 768 768 766 765 763 763 764 764 764 764 763 763 764 764 762 762 764 768 772 774 775 779 782 780 777 778 779 781 781 782 784 786 788 790 791 793 795 797 798 800 801 802 804 804 805 806 807 808 809 810 811 811 812 812 813 813 813 813 813 814
764 759 758 758 757 757 761 763 761 765 768 762 757 756 758 762 764 764 763 762 766 769 763 763 771 771 767 769 768 766 767 767 767 767 767 765 763 764 764 764 765 764 765 766 769 772 776 778 779 776 776 777 778 779 780 781 782 785 787 789 791 793 794 796 798 799 801 801 802 803 803 804 805 807 808 809 810 811 811 812 812 813 813 813 814 814
758 755 755 758 758 758 762 764 758 758 764 764 756 751 755 760 763 764 762 763 772 774 763 762 773 777 771 768 767 767 770 772 771 770 769 766 765 765 764 765 767 768 766 765 767 772 777 777 775 775 776 777 778 778 778 780 782 784 786 788 790 792 794 795 797 798 799 800 801 801 802 803 804 806 807 809 810 810 810 811 812 812 812 813 813 814
755 758 757 757 758 761 763 762 755 753 760 763 754 750 757 761 763 766 763 765 772 770 765 766 774 781 779 771 766 768 774 774 772 771 768 765 765 765 764 764 766 769 767 766 770 774 775 774 775 777 777 775 777 779 780 782 783 783 785 788 789 791 793 795 796 797 798 798 799 800 801 802 804 805 807 808 809 810 810 810 810 811 812 813 813 814
751 758 758 757 760 763 761 754 749 751 757 759 752 753 760 761 764 766 767 772 773 769 775 777 777 786 788 775 769 772 774 773 770 767 765 763 763 763 762 762 765 770 770 769 773 773 772 773 774 773 772 773 776 778 780 783 784 784 786 788 789 790 792 793 795 796 797 798 798 799 801 802 804 805 806 807 808 809 809 809 809 810 811 812 812 813
749 748 746 752 757 757 752 745 745 750 754 753 752 755 760 764 767 767 772 777 774 774 783 782 779 789 792 781 776 776 773 772 768 763 760 759 759 760 761 764 770 773 770 768 769 768 768 770 770 770 770 773 775 777 779 783 784 786 787 788 788 789 790 792 793 794 796 797 798 799 800 802 803 804 805 807 807 807 808 808 808 809 810 810 811 811
744 738 738 744 746 743 741 743 745 747 748 748 752 758 761 766 768 770 776 778 778 782 783 779 778 784 789 784 778 774 770 768 765 761 758 756 758 760 761 764 769 767 763 763 764 764 766 768 769 770 771 773 775 777 779 780 782 785 787 787 787 788 789 790 792 793 795 796 798 799 800 801 802 803 804 805 806 806 807 807 807 808 808 808 809 810
743 741 740 737 734 735 739 744 745 744 745 747 755 762 767 772 771 773 780 782 787 790 781 776 775 777 786 786 776 770 764 761 761 760 757 756 758 760 759 761 763 761 760 761 763 764 766 768 770 771 772 773 775 777 778 779 780 783 785 785 786 787 788 789 791 793 794 796 797 798 800 801 801 802 803 804 804 805 805 806 806 807 807 807 808 809
748 746 741 735 732 732 740 749 750 748 748 751 759 766 774 783 783 784 791 793 794 791 780 774 775 778 786 782 773 769 763 758 757 755 754 754 755 756 756 758 760 760 760 761 762 765 768 770 772 774 773 772 773 774 776 778 779 781 782 783 784 785 787 789 791 792 794 795 797 798 799 799 800 801 801 802 803 804 804 805 805 806 806 807 807 808
756 750 743 741 738 731 737 751 757 756 753 755 760 766 776 785 789 793 797 797 795 789 779 774 778 785 786 779 773 769 761 756 753 751 751 752 752 754 754 756 758 759 759 760 762 766 770 771 771 773 773 772 773 774 775 777 778 779 781 781 783 784 786 788 790 792 793 795 796 797 798 798 799 799 800 802 802 803 804 804 804 804 805 806 806 806
767 764 751 747 744 735 736 744 749 751 754 758 757 760 770 775 779 785 789 791 791 787 781 778 783 790 788 780 772 765 758 755 753 752 753 753 752 753 755 757 759 760 761 761 763 765 768 767 767 769 771 772 774 775 776 777 777 778 779 780 782 784 786 788 790 791 792 793 794 795 796 796 798 799 800 801 802 802 803 803 803 803 804 805 805 805
767 764 745 739 738 735 738 738 737 745 757 763 759 762 766 761 763 774 778 780 781 784 786 785 785 784 781 776 768 763 761 757 755 757 757 759 759 758 760 764 764 764 763 763 763 765 766 767 768 770 771 772 773 774 775 776 776 777 778 780 782 783 785 786 788 789 790 792 793 794 795 796 798 799 800 800 801 801 801 801 801 802 803 803 804 804
765 759 740 736 738 735 738 737 735 744 754 760 762 762 756 747 752 769 777 775 776 786 791 787 785 782 778 777 771 766 766 762 760 762 763 766 767 765 767 769 767 765 764 764 764 765 767 768 770 771 771 771 770 771 774 775 776 777 778 780 781 783 784 786 786 788 789 791 792 793 795 796 797 798 798 798 798 799 799 800 800 801 801 802 803 803
760 759 742 738 743 737 732 735 737 738 742 754 761 754 746 744 749 760 774 779 783 794 794 787 789 789 787 786 777 771 772 770 767 767 767 769 769 769 770 769 768 766 766 766 766 766 767 768 769 770 770 770 770 771 773 775 776 777 778 780 781 782 784 785 786 787 789 791 792 792 793 794 796 796 796 796 797 798 799 800 800 800 800 800 801 801
753 761 748 736 740 736 730 738 747 742 737 745 750 745 749 759 760 761 771 779 787 797 797 790 789 790 790 788 782 778 778 775 772 770 770 771 770 770 770 769 769 769 769 769 768 768 769 769 770 770 770 770 771 772 773 775 776 777 778 780 781 782 784 785 787 788 790 790 791 792 792 792 793 794 794 795 797 798 799 799 799 799 799 799 799 800
748 762 758 739 734 736 736 743 755 754 745 742 744 746 752 759 761 763 768 772 780 793 797 793 792 792 790 786 782 781 779 776 775 773 771 771 770 770 770 770 771 771 771 771 770 770 770 770 771 770 771 772 772 772 773 774 776 777 779 780 781 782 783 785 787 788 789 790 790 790 790 790 791 791 792 793 795 796 797 798 798 798 798 798 798 798
746 758 762 746 736 742 745 744 748 752 749 748 751 754 757 756 756 761 766 768 772 785 794 796 798 796 787 782 782 780 778 776 775 773 772 771 770 769 769 769 771 772 772 771 771 770 770 770 770 769 770 771 771 772 774 775 776 777 778 779 780 782 783 785 787 788 788 787 787 787 788 789 790 788 789 790 792 794 796 797 797 796 797 797 797 797
746 754 760 754 747 749 746 735 733 739 741 743 747 749 753 755 758 766 774 773 768 775 786 792 798 796 784 781 782 779 777 776 774 773 773 771 770 770 769 769 770 771 771 771 770 770 771 770 769 768 769 770 770 772 774 774 775 776 778 779 780 782 784 785 786 787 786 786 785 786 787 787 786 786 787 789 791 793 794 795 795 795 796 796 796 796
740 750 758 758 752 748 740 730 730 733 734 735 738 741 747 752 755 762 773 774 771 777 782 787 796 792 780 779 780 778 777 776 774 773 773 773 772 771 770 770 770 771 771 771 770 771 771 771 770 770 770 769 769 771 773 774 775 777 779 780 781 783 783 783 784 785 786 785 785 786 786 784 783 785 788 790 791 791 792 793 793 794 794 794 794 794
739 752 760 758 750 742 734 729 728 728 732 738 739 740 745 748 747 750 758 764 772 781 782 787 799 792 778 777 778 777 777 776 776 774 773 775 774 772 772 772 772 772 772 771 771 771 771 772 771 772 773 772 771 772 774 774 775 777 778 779 780 781 781 781 782 784 785 785 784 784 784 783 783 786 789 790 790 790 790 791 792 792 793 793 793 792
746 758 761 762 764 759 754 750 744 738 739 745 746 742 741 740 741 747 752 757 772 782 778 786 801 794 780 778 778 777 778 778 778 775 774 775 776 775 774 773 773 774 773 773 773 773 773 774 775 776 777 777 776 775 775 775 776 777 778 779 780 781 781 782 782 783 783 783 783 785 785 785 785 787 788 788 788 788 788 789 790 790 790 790 791 791
747 758 759 767 780 785 782 776 765 755 751 752 751 747 741 737 740 749 754 760 775 784 781 787 797 793 783 780 781 780 779 780 780 778 777 777 777 777 776 776 776 776 776 776 776 776 777 777 778 779 779 779 779 778 778 777 778 779 780 781 782 782 781 781 781 781 782 783 784 786 787 787 787 787 787 787 787 787 788 787 787 788 788 789 789 789
747 756 756 762 772 776 774 767 758 755 759 762 759 752 745 739 740 747 755 764 774 783 789 792 790 789 787 783 783 784 782 782 782 780 780 780 780 780 779 779 779 778 778 779 778 779 779 779 780 780 781 781 781 781 781 781 781 781 782 783 783 783 783 782 783 783 784 785 785 786 787 788 787 787 786 786 786 787 786 786 785 786 787 788 788 789
750 759 757 758 760 759 758 756 753 753 759 765 762 755 749 743 742 746 754 762 768 778 794 794 785 787 790 783 783 785 782 782 783 782 782 782 782 782 781 781 782 782 782 781 781 781 781 782 782 782 783 783 783 784 784 783 784 784 785 785 786 786 785 785 786 786 786 786 786 786 786 786 787 786 786 786 786 786 785 784 785 786 786 787 788 788
753 762 757 757 761 759 756 755 754 755 759 761 760 756 751 747 746 749 757 763 763 770 784 788 785 788 789 783 782 782 780 781 783 782 782 782 782 783 783 784 785 785 785 785 785 784 784 784 784 784 784 784 784 785 785 785 786 786 787 787 787 787 786 786 786 786 786 786 785 785 784 784 784 784 785 785 785 785 785 785 785 785 784 785 787 788
752 760 756 756 763 765 762 759 756 756 758 760 759 756 752 751 751 754 761 764 763 768 778 782 785 788 784 782 782 780 778 779 780 782 783 783 783 784 784 786 787 787 788 788 788 787 786 786 786 785 786 786 786 787 787 787 788 788 788 788 788 788 787 787 787 786 786 786 785 785 784 783 783 783 784 784 784 785 785 784 783 782 783 784 786 787
751 760 757 754 763 768 765 763 760 757 759 762 761 758 756 757 760 762 765 765 767 777 781 781 787 789 783 779 780 779 778 779 780 783 783 783 784 784 786 787 788 789 789 789 789 789 788 788 788 787 787 788 788 788 789 789 789 789 790 790 790 790 789 789 788 788 787 787 786 785 784 784 784 783 784 784 784 784 784 783 783 783 785 786 786 786
752 760 758 756 768 772 765 766 767 760 760 765 765 762 761 762 764 766 765 763 766 777 785 786 789 789 782 778 779 779 779 780 782 783 783 784 784 785 787 789 789 790 791 790 790 790 790 790 790 790 789 790 790 790 790 790 790 791 791 791 791 791 790 789 789 788 788 788 787 787 786 786 786 786 786 786 786 786 785 785 785 785 786 786 786 786
755 760 760 763 773 775 768 768 766 763 769 774 768 765 764 762 762 764 764 763 763 769 779 784 783 780 778 778 780 782 781 781 782 782 782 785 786 787 789 790 791 792 791 791 792 792 792 792 791 791 791 791 791 792 792 792 792 792 793 792 792 792 791 791 790 790 789 789 789 789 789 789 789 789 789 789 788 788 787 787 787 786 786 786 786 786
757 758 761 766 772 776 772 767 767 774 781 776 765 761 763 759 759 764 768 767 764 764 768 772 773 774 776 777 779 782 782 781 782 782 782 784 786 789 791 791 792 793 792 793 793 793 793 793 793 793 792 792 793 793 793 794 794 794 794 794 794 794 793 793 792 792 792 791 791 791 791 791 790 791 791 790 790 789 789 788 788 788 788 787 787 787
756 757 761 764 769 776 776 773 781 787 779 765 759 761 762 760 758 764 769 767 764 764 766 770 774 775 776 777 779 780 781 781 782 783 784 785 786 788 791 792 793 793 794 794 794 794 794 794 794 794 794 794 794 794 794 795 795 796 796 795 796 795 795 795 794 794 794 793 793 793 793 792 792 792 792 792 791 790 790 789 789 788 788 788 788 788
755 758 762 765 769 776 780 782 787 785 770 762 764 763 762 762 759 763 772 773 768 767 768 772 776 777 777 779 780 780 781 782 783 786 787 786 787 788 791 793 794 794 795 795 795 795 795 795 795 795 795 796 796 796 796 796 796 797 797 797 797 797 797 797 796 796 796 795 795 794 794 794 794 794 793 793 793 792 791 791 790 790 789 789 789 789
754 759 763 768 771 776 782 786 787 782 773 769 769 765 766 769 766 765 772 776 774 772 771 772 776 778 779 781 782 782 781 784 790 793 790 788 789 790 791 793 794 794 795 795 795 796 796 796 797 797 797 797 797 798 798 798 798 799 799 799 799 799 799 799 799 798 798 797 797 797 796 796 796 796 795 795 794 793 793 792 792 792 791 791 791 791
754 758 761 768 774 775 781 789 793 791 784 778 774 769 767 771 772 768 772 777 777 775 773 771 773 777 779 781 783 781 781 790 799 799 793 791 791 791 792 793 794 795 795 796 796 797 797 798 798 798 799 798 799 799 800 800 800 800 801 801 801 801 801 801 801 801 800 800 799 799 798 798 797 797 797 796 795 795 795 794 794 794 794 793 793 792
755 759 761 767 773 774 777 785 791 791 787 782 777 771 766 767 766 768 778 783 779 775 774 773 774 777 778 780 780 778 783 797 804 799 794 793 792 792 793 794 795 796 796 797 797 798 798 799 799 800 800 800 801 801 801 801 801 802 803 803 803 803 803 803 803 803 802 802 801 800 800 799 798 798 797 797 797 797 796 796 796 796 796 795 794 794
760 764 766 769 774 777 778 781 784 784 783 780 775 772 769 763 761 773 788 785 774 773 775 774 775 779 779 780 780 781 787 796 799 796 794 793 793 794 794 795 796 797 798 798 799 799 799 800 800 801 801 802 802 802 802 802 803 803 804 804 804 804 804 804 805 804 804 804 803 802 801 800 799 798 798 798 798 798 798 798 798 798 797 797 796 795
769 771 773 774 777 780 780 780 781 782 779 775 772 771 769 765 770 782 785 774 768 774 776 773 776 780 781 781 782 784 788 790 792 794 794 793 794 796 796 797 798 799 799 800 800 800 801 801 802 802 803 804 804 803 803 804 804 804 805 805 805 806 806 806 806 806 806 805 804 803 802 801 800 800 799 799 799 799 799 799 799 799 798 798 797 796
776 778 779 779 781 782 781 781 783 782 777 773 771 768 766 770 778 779 772 766 769 774 774 774 777 779 780 782 783 786 788 789 792 794 794 794 796 798 798 799 799 800 801 802 802 802 803 803 804 804 805 805 805 805 805 805 806 806 807 806 807 807 807 808 808 807 807 806 805 805 803 802 802 801 800 800 799 799 799 799 799 799 798 798 798 797
778 780 781 781 782 784 785 785 785 783 777 773 772 769 767 771 773 769 766 767 770 771 772 775 778 779 782 784 787 789 790 792 795 796 796 797 798 799 800 801 801 802 803 804 805 805 805 805 806 806 807 807 807 808 808 807 808 808 808 808 809 809 809 809 808 808 808 807 806 806 805 804 803 802 801 801 800 799 799 799 799 798 798 798 797 797
780 782 785 783 781 783 786 784 781 778 775 773 774 772 770 769 767 765 767 770 770 771 774 776 779 781 783 785 789 792 793 794 796 797 798 800 800 801 803 803 803 804 805 805 807 807 807 808 808 808 809 809 809 810 810 809 810 810 810 810 810 810 810 809 809 809 808 808 808 807 806 805 804 803 802 801 801 800 799 799 799 798 797 797 797 796
781 780 781 782 780 780 781 779 775 774 773 773 773 772 770 768 765 764 766 769 770 772 774 776 781 785 786 787 791 793 794 796 797 798 799 801 802 803 804 805 805 806 807 807 808 809 809 810 810 810 811 811 811 812 811 811 811 811 811 811 811 811 810 810 809 809 808 808 808 808 807 806 805 804 803 802 801 800 800 799 799 798 797 797 796 795
778 777 777 778 779 778 776 775 773 773 774 773 772 771 770 769 767 766 767 768 770 770 771 775 780 784 786 789 791 794 796 797 798 800 802 803 804 805 805 806 807 807 808 809 810 810 811 811 812 812 812 813 813 813 813 813 812 812 812 812 812 811 811 810 810 809 809 809 808 808 807 806 805 804 803 803 802 801 800 800 799 798 797 796 795 795
777 776 776 778 779 780 779 778 776 775 776 774 772 771 770 769 769 770 770 771 771 771 772 775 779 783 786 788 790 795 797 798 800 803 804 804 806 806 806 807 808 808 809 810 811 811 812 812 813 813 813 814 814 814 814 814 813 813 813 812 812 812 811 810 810 809 808 808 808 807 807 806 805 804 803 803 802 801 800 800 799 798 797 796 795 794
778 776 777 779 780 782 782 780 777 777 777 776 775 774 774 774 774 773 772 772 773 774 775 777 780 783 786 788 791 795 798 800 802 804 805 806 807 807 807 808 809 809 810 811 812 812 813 813 813 813 814 814 814 814 814 814 814 814 813 813 812 812 811 811 810 809 809 808 807 806 806 805 804 804 803 802 801 800 800 799 798 798 797 796 795 794
780 779 779 780 782 783 783 780 779 780 781 780 779 779 778 778 779 777 774 773 775 777 779 782 783 785 787 790 793 796 799 802 803 804 807 808 808 808 809 809 810 811 811 812 812 813 813 814 814 814 814 815 815 815 815 814 814 814 813 813 812 812 811 811 810 809 809 808 806 806 805 804 804 803 802 801 800 799 799 798 798 797 796 795 794 793
783 783 780 781 785 787 786 784 782 783 786 786 785 785 784 782 780 778 777 778 780 781 783 785 787 789 790 792 794 797 801 804 804 806 807 808 808 809 809 810 811 811 812 812 813 813 814 814 814 815 815 815 815 815 815 814 814 814 813 812 812 811 811 811 810 809 808 807 806 805 804 803 803 802 801 800 799 799 798 798 797 796 795 794 794 793
783 784 781 782 787 789 787 785 784 785 788 788 786 786 786 783 781 781 782 783 784 785 785 787 790 792 794 795 796 798 802 804 806 807 808 809 809 810 810 810 811 811 812 813 813 813 814 814 814 815 815 815 815 814 814 814 813 813 812 812 811 811 810 810 809 808 807 806 805 804 803 802 802 801 800 800 799 798 797 797 796 795 794 793 792 791
Wind_Speed
2 2 1 4 6 5 5 5 5 5 4 4 3 3 4 3 2 3 2 3 4 2 3 1 3 3 2 1 2 4 4 5 4 4 4 3 3 4 3 3 3 1 3 4 8 9 9 12 12 13 22 28 27 27 28 28 29 29 28 28 26 25 26 25 24 23 20 19 20 18 16 16 15 13 10 8 10 12 11 10 7 4 2 1 4 3
3 1 5 7 8 8 6 5 4 4 3 2 3 2 1 2 2 2 1 1 1 2 3 3 4 4 1 0 1 3 4 3 4 4 3 4 3 2 4 4 4 3 4 7 8 6 6 8 7 7 14 21 23 25 28 29 29 29 28 28 27 26 26 25 24 23 20 20 23 21 18 16 14 12 11 10 11 12 13 10 6 4 2 1 2 1
2 1 6 7 7 6 5 5 4 3 2 2 2 2 2 1 1 2 2 1 2 2 1 3 4 4 2 1 2 2 2 3 4 4 4 6 6 5 6 6 6 5 5 6 5 5 8 8 9 11 13 15 18 22 28 29 29 29 28 27 27 27 26 24 24 24 20 20 23 20 17 15 13 12 12 11 11 11 12 9 5 3 1 1 1 1
2 3 8 5 3 3 3 4 2 2 2 2 2 2 1 2 2 1 3 1 2 3 2 1 3 1 2 2 1 1 2 3 4 4 3 4 6 6 6 6 7 6 6 5 4 4 8 11 13 17 18 18 19 22 26 29 28 28 28 28 27 27 26 23 23 24 20 19 20 17 14 15 13 12 12 12 12 11 10 8 6 4 2 1 3 4
1 4 4 5 2 1 2 4 2 2 3 3 4 4 3 3 3 2 2 0 2 3 2 2 2 1 0 2 1 2 3 2 3 3 2 3 4 4 3 4 5 6 6 6 5 3 7 13 18 21 21 21 21 22 25 28 29 28 28 29 28 26 25 23 23 24 20 17 19 18 16 16 13 12 13 13 13 12 11 9 8 7 3 1 4 5
3 6 5 3 4 1 1 4 2 4 2 3 3 4 5 5 4 2 2 1 3 2 1 2 2 3 1 1 1 2 3 3 2 1 3 4 4 4 4 4 3 3 5 7 6 5 6 12 21 24 23 22 21 23 25 27 29 29 28 28 27 25 24 23 23 23 20 17 18 20 19 18 14 12 14 14 14 13 12 11 10 8 5 4 6 6
2 4 5 4 3 1 1 4 3 5 3 1 1 4 7 7 5 4 3 3 2 1 2 2 3 2 3 2 1 3 3 2 1 3 5 4 4 4 4 4 4 4 5 7 6 7 10 16 19 17 15 17 19 22 25 25 25 27 28 28 27 25 24 23 23 22 19 18 20 20 19 19 17 15 14 14 14 13 10 8 9 9 7 6 5 5
4 4 4 4 1 2 2 4 4 4 5 1 1 7 8 6 5 4 3 3 1 1 1 3 4 2 3 3 2 3 1 3 5 5 5 5 5 5 2 3 7 8 6 6 6 8 13 15 12 11 11 15 17 21 25 23 23 26 27 27 27 25 24 23 23 21 20 21 22 20 18 17 16 15 14 14 12 11 9 5 7 11 10 7 4 4
4 6 7 6 2 1 3 4 4 5 4 2 2 8 6 5 5 4 5 4 1 2 3 3 4 2 3 3 2 2 4 3 4 5 6 6 7 6 5 3 4 6 6 6 10 13 14 12 14 16 19 19 18 22 25 21 21 25 26 26 27 26 24 23 22 21 21 22 21 19 18 15 13 12 13 13 11 10 9 6 8 12 11 8 6 5
2 6 8 6 2 2 4 4 5 5 3 2 7 9 6 5 4 4 5 3 3 4 2 2 4 2 2 3 2 0 2 2 3 5 5 6 7 7 8 6 5 8 7 10 14 15 14 14 17 20 20 18 19 21 23 21 20 23 25 26 27 26 25 24 22 22 22 21 19 18 17 15 13 12 12 13 12 11 10 9 12 14 13 11 10 9
2 3 5 5 3 3 3 4 5 4 4 6 6 6 5 5 3 3 4 2 3 2 1 0 1 3 0 3 2 1 2 3 4 3 3 5 6 5 6 8 11 11 11 11 11 10 10 12 14 16 16 16 20 21 22 22 21 23 25 26 27 26 26 25 23 23 22 20 18 17 16 15 13 13 13 14 14 13 11 12 15 15 14 13 11 10
3 2 1 3 2 3 3 3 3 2 4 5 4 4 4 4 2 3 3 3 3 2 3 2 2 2 2 2 3 4 4 4 4 4 3 4 7 6 5 6 10 11 10 9 8 5 7 8 10 13 13 14 19 22 22 21 21 24 27 27 27 26 25 25 24 24 22 19 18 16 16 15 14 15 16 16 17 16 14 14 14 14 15 14 13 11
3 2 3 4 2 3 5 3 2 1 1 3 4 4 3 3 2 2 2 1 0 2 2 3 3 2 1 0 4 6 6 5 4 6 5 6 10 10 7 6 8 8 8 8 7 5 5 6 5 7 10 12 17 21 21 21 22 25 28 28 27 26 25 25 25 24 22 20 19 17 17 16 15 16 17 17 18 19 17 16 16 16 16 15 13 12
3 4 4 4 3 1 5 3 1 1 1 3 3 3 3 2 1 0 1 0 1 2 1 2 3 2 1 2 6 7 6 6 6 5 4 5 10 10 7 7 8 8 7 7 6 6 6 6 8 10 11 12 15 18 20 21 23 25 26 26 27 26 25 23 23 23 22 21 20 18 18 18 17 17 17 17 17 18 18 18 19 20 20 17 15 14
2 3 2 1 1 1 2 3 4 3 2 1 1 3 3 2 3 2 2 2 2 2 2 3 2 2 1 2 5 6 4 4 3 3 3 5 7 7 7 6 7 6 5 4 6 8 8 11 14 14 12 11 13 16 19 20 22 23 23 25 26 26 25 22 21 22 23 21 21 19 20 20 19 17 16 15 16 18 19 18 19 21 22 21 18 17
2 3 4 3 2 2 1 2 4 4 3 0 0 3 1 2 3 2 2 3 3 2 2 2 1 1 1 1 4 4 3 4 5 7 7 7 6 6 7 5 5 4 4 4 5 7 8 10 12 11 10 11 14 18 20 20 21 22 22 23 24 25 25 21 20 22 23 22 21 20 19 20 19 17 15 15 16 18 19 19 19 21 22 22 20 18
2 4 5 1 0 3 3 3 4 3 1 2 2 1 3 3 5 4 1 2 2 3 2 2 1 2 0 2 5 5 4 6 6 6 8 9 7 6 6 5 4 4 3 3 4 5 6 9 12 11 11 15 18 19 18 19 20 21 21 21 21 22 23 21 20 21 22 22 22 21 19 19 19 18 17 16 17 17 17 17 17 18 18 20 21 19
2 3 5 1 0 3 3 4 3 1 2 3 2 3 2 1 3 3 3 2 3 3 2 2 2 2 2 2 4 5 7 7 5 5 7 8 7 6 6 6 6 5 4 2 3 4 4 7 10 10 12 14 16 17 17 18 18 18 18 19 19 19 20 20 19 19 19 20 22 22 20 19 19 19 19 19 18 18 17 16 14 14 15 16 18 19
3 2 5 3 2 2 3 5 2 4 4 2 2 1 1 2 1 2 2 1 2 2 1 2 1 1 2 2 3 6 6 5 4 4 6 6 6 5 6 7 7 6 4 3 3 3 3 5 8 9 11 12 12 14 15 15 15 14 14 14 14 15 16 17 17 17 16 16 18 19 20 19 18 18 19 19 17 17 19 18 15 14 14 14 16 18
3 3 3 5 0 3 3 3 1 3 4 1 1 2 1 2 2 1 1 2 3 3 2 2 2 2 2 2 3 4 3 3 3 4 5 6 5 5 5 6 6 6 4 3 3 3 3 6 8 9 9 10 10 10 11 11 11 10 9 9 10 12 13 14 15 15 15 16 16 17 19 19 18 18 18 18 17 16 18 19 17 15 15 15 16 17
2 2 2 5 3 3 0 2 5 5 2 1 1 1 0 1 1 2 1 1 3 3 2 2 2 1 1 2 2 2 2 4 3 4 6 6 5 5 5 5 5 5 4 4 3 3 4 6 7 7 6 7 7 7 7 7 8 7 7 8 8 9 10 12 13 14 15 17 18 19 20 19 18 19 20 21 20 17 16 17 18 17 17 18 18 18
1 1 1 3 4 1 3 3 6 9 6 4 3 3 3 2 2 3 2 1 1 4 3 3 3 1 1 1 2 2 2 3 3 5 6 6 6 6 5 5 5 5 5 4 4 4 4 6 7 7 6 5 4 4 4 5 6 6 6 7 8 9 10 12 12 12 14 16 19 20 19 17 16 17 19 21 21 20 18 17 17 17 19 20 19 19
2 2 1 2 2 3 4 1 3 7 5 2 2 2 3 3 3 4 3 1 2 4 2 2 3 1 2 1 2 2 2 3 3 4 6 6 6 6 6 6 6 5 5 4 4 4 5 7 9 9 8 5 1 2 3 4 6 6 6 7 9 9 10 10 9 10 12 14 17 17 15 15 17 18 18 19 19 20 20 19 19 18 18 19 19 19
1 2 2 3 4 3 4 4 3 2 3 2 2 1 3 3 3 4 4 3 4 2 1 3 2 2 2 2 2 2 3 3 2 4 6 6 5 6 7 7 6 6 5 4 5 4 6 9 9 8 8 5 2 4 4 4 5 6 5 5 7 7 7 8 8 8 9 11 14 14 13 16 19 21 23 21 18 18 18 19 20 19 18 18 17 17
2 1 2 3 4 5 6 6 6 5 4 2 3 4 2 3 5 4 3 4 4 1 2 5 2 2 3 3 3 2 2 4 3 4 6 6 6 6 7 7 7 6 6 6 6 5 6 8 7 6 7 6 6 5 4 4 5 5 4 4 5 5 6 7 6 6 6 7 10 11 12 16 19 21 21 19 17 17 17 17 18 17 17 18 18 17
1 1 3 4 3 1 1 2 2 3 4 3 5 9 6 3 7 5 2 4 3 1 3 4 3 2 2 2 2 2 3 5 6 5 6 6 6 6 6 6 7 7 7 7 7 6 6 6 6 7 8 7 6 6 5 3 4 4 3 3 3 4 5 4 4 4 5 6 9 11 14 17 18 17 14 13 15 16 15 13 12 12 13 15 16 17
3 2 2 5 5 4 4 4 5 2 1 2 7 11 8 2 6 5 3 3 4 4 4 3 4 7 3 3 3 3 3 6 6 6 6 6 6 6 6 7 7 6 6 6 6 7 7 6 6 7 8 8 6 5 6 5 4 3 4 4 4 2 1 1 2 5 7 7 8 11 14 15 15 14 11 10 11 12 11 9 9 10 11 12 13 14
4 3 2 3 2 3 5 3 1 2 3 2 6 9 7 3 5 5 4 6 7 6 4 1 5 8 5 4 4 3 3 6 6 6 6 6 6 6 6 7 7 7 6 6 7 7 7 7 6 7 8 8 8 7 7 7 6 6 7 8 8 7 5 5 4 4 5 4 5 6 8 9 10 9 8 7 7 7 8 8 8 9 8 8 10 11
5 1 2 1 2 3 1 4 4 5 4 2 6 7 5 4 6 6 4 6 6 6 7 8 8 8 6 6 5 4 3 6 7 6 7 6 6 6 7 8 8 7 7 6 6 6 7 6 5 7 9 9 10 11 11 11 10 10 11 11 12 11 10 10 9 8 7 6 4 2 1 2 4 5 5 4 4 5 6 7 7 6 5 6 8 10
5 1 2 2 4 4 5 2 6 8 5 3 7 7 5 7 7 7 6 5 7 9 10 12 10 7 5 5 6 4 3 5 7 6 7 7 7 7 8 8 8 7 7 6 5 5 5 5 5 8 10 11 13 14 14 14 14 14 14 14 14 14 13 13 14 13 12 12 11 10 9 7 5 2 0 2 1 1 2 4 5 5 5 5 5 7
3 1 2 3 4 4 6 4 6 9 7 3 6 7 7 9 9 9 8 9 11 11 9 10 10 5 2 4 6 5 4 5 7 7 7 7 7 8 8 8 8 7 7 6 6 5 5 5 6 8 10 11 14 16 16 16 16 16 17 16 15 15 14 15 15 15 15 15 14 14 14 13 12 9 7 7 7 6 4 4 3 2 1 1 2 2
3 1 2 4 4 3 3 3 4 6 6 2 4 6 6 5 6 5 4 6 10 12 10 9 8 5 3 5 6 6 6 6 7 7 6 6 6 8 8 7 6 6 6 6 6 6 6 6 6 8 11 12 14 16 17 18 18 17 16 16 16 15 16 16 16 16 17 17 16 16 16 15 15 13 12 11 10 9 8 7 6 6 5 5 5 4
2 2 1 3 3 3 2 2 2 3 5 1 3 3 4 1 6 5 3 3 8 13 11 7 6 5 6 6 8 8 8 7 6 6 7 7 8 8 8 7 7 6 6 6 6 6 6 6 8 11 14 16 16 17 17 17 17 16 16 17 17 16 17 18 18 18 17 18 18 17 16 16 16 15 13 12 11 10 10 10 11 10 10 9 8 7
3 4 1 2 3 3 3 3 4 3 2 3 5 3 3 2 8 8 5 5 6 6 5 5 6 7 7 6 8 9 7 6 6 6 7 8 8 8 8 7 7 6 5 6 6 5 5 8 12 15 17 17 17 17 17 16 17 17 19 19 19 18 18 19 19 19 18 17 17 16 16 17 16 15 13 12 12 12 12 13 13 12 10 9 9 9
3 4 1 2 4 2 2 5 4 1 5 5 4 4 4 2 10 11 6 3 4 7 10 10 8 8 8 6 7 9 9 9 9 9 8 7 7 8 8 7 6 6 6 5 5 5 7 11 15 16 17 17 17 18 19 20 20 21 21 20 20 19 19 19 19 19 19 19 17 17 16 16 16 17 16 15 14 14 13 12 12 12 10 9 9 9
4 3 2 2 3 1 1 4 2 5 5 4 5 5 4 4 10 12 6 4 1 5 10 11 9 7 8 9 8 10 11 10 10 8 6 7 7 8 8 6 6 6 5 5 6 7 9 13 15 16 17 19 19 20 21 22 21 21 21 20 20 20 19 18 18 18 19 20 18 16 16 15 16 17 17 17 16 15 13 12 12 13 13 13 14 14
4 3 2 1 1 2 3 3 1 3 5 4 2 2 3 3 2 4 3 2 4 4 4 9 10 10 10 11 10 10 11 11 9 5 4 6 7 7 8 7 7 7 8 10 12 13 14 15 16 17 18 18 18 17 19 20 21 21 22 20 19 19 18 18 18 17 18 19 18 16 15 14 14 15 16 17 17 16 15 13 13 15 16 18 19 20
3 2 2 2 0 2 4 2 1 2 2 4 4 4 5 7 9 8 2 1 3 4 4 8 12 13 12 11 10 9 10 10 6 2 2 5 7 7 7 8 9 11 12 14 17 18 19 20 19 19 19 19 19 18 18 19 20 20 21 20 19 19 18 18 17 16 16 17 17 16 15 13 12 12 13 15 16 16 16 16 16 16 16 17 18 18
5 3 4 4 2 2 4 3 1 2 3 5 4 5 2 4 6 7 3 1 2 2 4 6 10 12 11 10 8 8 8 6 4 2 1 4 7 7 7 8 11 14 16 17 18 18 19 21 21 21 21 21 21 19 18 19 19 20 20 20 19 19 18 17 16 15 14 15 16 16 15 13 12 12 12 13 13 14 13 13 14 14 14 14 15 15
5 4 3 3 1 1 4 2 2 2 3 5 4 2 1 2 5 6 2 4 4 5 4 4 8 8 7 7 7 7 6 5 5 4 3 6 8 9 10 10 12 15 17 19 20 20 20 20 21 21 21 20 20 20 20 19 19 19 19 18 18 17 16 15 14 13 12 12 13 15 16 15 13 12 12 11 11 11 11 10 10 10 11 11 11 11
3 3 2 2 2 2 3 2 2 2 3 5 3 1 1 2 5 4 4 5 5 7 4 6 8 6 5 5 5 4 4 5 6 5 5 9 10 9 12 15 16 17 19 20 20 21 21 21 21 20 19 18 18 19 19 19 19 18 17 16 15 15 14 12 11 11 11 10 11 13 14 16 15 13 11 10 9 9 8 8 7 7 7 7 7 7
2 2 2 2 2 1 2 2 1 2 3 3 4 3 1 3 2 4 4 3 7 9 7 7 8 6 6 7 6 6 6 7 7 7 7 9 8 8 11 15 17 18 19 20 20 21 21 20 19 18 17 16 16 16 17 18 18 17 15 14 13 11 10 10 9 9 9 9 10 10 11 12 13 13 12 9 8 8 7 6 5 4 3 4 5 4
1 0 1 0 2 1 2 2 0 3 3 2 2 3 2 3 4 3 2 5 7 9 8 6 5 6 9 9 7 8 8 8 8 7 8 8 8 8 11 14 14 15 16 18 18 18 19 19 18 17 15 14 13 13 13 14 15 14 13 12 10 8 7 7 7 7 6 7 7 7 8 9 10 11 12 10 9 8 8 6 5 4 3 4 4 4
1 1 1 2 1 2 2 1 3 3 3 2 3 2 1 2 2 1 4 4 6 8 7 6 6 7 9 10 9 9 9 9 8 8 9 8 8 9 11 13 15 16 16 17 16 16 17 17 16 15 14 12 12 11 10 10 10 10 10 9 7 6 5 5 5 5 4 4 4 3 3 4 5 7 8 9 9 8 8 7 6 5 4 4 5 5
1 1 3 2 1 2 3 4 3 1 2 2 0 1 1 1 2 4 4 4 5 7 7 7 8 8 9 12 11 9 8 8 8 8 8 8 7 8 10 12 15 16 16 17 16 14 14 14 13 13 11 9 9 9 10 9 8 7 7 7 6 5 5 4 5 5 4 4 5 5 3 2 1 1 2 4 5 6 6 6 5 5 4 3 3 3
2 2 2 2 1 0 1 1 0 2 3 4 3 2 2 2 3 4 4 4 5 7 8 9 10 10 11 12 11 9 8 8 8 8 8 7 6 8 11 12 13 15 15 15 14 12 11 11 10 10 9 8 6 6 8 9 8 7 6 6 5 5 4 5 5 3 2 5 6 7 7 5 3 4 4 2 1 2 2 3 3 4 4 2 2 2
2 1 1 2 2 1 1 2 2 4 3 3 3 4 5 6 5 4 4 5 5 7 9 10 11 11 10 11 11 9 8 9 9 7 6 7 6 7 10 12 12 12 13 13 12 11 10 9 8 7 7 6 5 5 4 5 5 6 5 4 4 3 5 7 7 2 0 3 6 6 8 9 7 5 5 6 6 4 4 3 1 1 2 2 3 2
3 2 1 2 3 2 1 1 4 5 3 4 4 4 5 7 6 4 5 7 8 9 9 10 11 10 9 9 10 10 9 9 9 8 6 6 6 7 10 12 13 13 13 12 12 10 7 6 6 5 5 4 3 3 2 2 3 3 3 2 2 3 5 7 8 5 3 4 7 7 8 9 10 10 8 5 8 9 8 7 6 4 2 1 0 1
3 3 1 1 3 3 1 2 4 5 5 6 7 6 6 5 3 4 7 10 11 11 10 9 9 9 10 10 9 10 10 8 8 9 8 5 5 8 10 12 12 12 11 10 9 7 5 4 4 5 3 2 2 1 1 1 2 2 1 0 0 2 4 5 6 6 5 6 8 8 10 10 9 10 13 10 6 10 11 10 8 8 7 5 4 4
2 2 1 2 3 1 1 3 2 4 5 6 7 7 5 3 4 8 11 11 11 11 11 10 10 9 10 12 12 11 9 7 8 10 8 7 8 10 12 12 10 9 8 8 7 7 6 4 2 1 1 1 2 1 0 1 2 2 1 0 0 2 3 2 4 5 5 7 8 9 10 11 10 11 11 10 6 5 9 10 10 10 11 10 9 8
1 2 1 3 4 3 5 5 4 4 6 5 6 6 1 0 6 11 11 10 10 10 11 11 11 10 9 11 15 15 10 7 10 12 8 7 11 12 12 12 11 10 9 8 8 9 7 5 4 5 4 3 1 1 2 4 5 4 3 2 3 4 3 2 3 6 7 7 8 9 9 10 12 11 8 6 6 4 4 6 9 10 12 13 14 13
Wind_Direction
64 49 298 237 234 234 222 208 208 229 250 281 278 218 230 237 266 290 286 227 184 119 332 337 81 71 81 94 91 91 73 77 103 100 81 67 74 105 133 145 159 169 88 128 189 207 208 180 181 192 172 163 163 161 163 163 164 168 169 170 170 170 173 173 171 171 171 172 173 169 158 155 156 160 168 168 165 171 175 169 161 153 159 319 348 337
57 84 257 238 227 231 233 228 227 258 269 270 267 208 163 166 223 292 0 258 229 99 324 328 60 59 62 42 39 89 91 91 120 120 119 140 129 147 190 177 161 149 125 157 184 196 191 174 174 183 166 159 158 157 162 164 166 170 171 172 171 171 173 175 175 175 174 173 173 170 166 164 165 171 181 181 175 175 175 167 160 160 154 329 351 50
7 268 275 258 229 229 239 235 225 253 269 282 279 151 130 226 212 316 350 10 17 91 289 323 54 49 29 46 27 56 99 108 130 143 159 168 164 188 208 189 174 163 150 160 155 153 172 162 151 163 164 160 159 160 163 166 168 171 172 173 173 173 176 179 180 179 177 175 175 174 174 176 178 183 194 196 185 178 176 172 171 170 120 48 137 154
32 308 314 310 219 206 245 255 243 280 286 245 227 133 199 239 127 296 300 340 39 87 164 174 77 52 7 36 39 70 103 99 115 129 145 176 178 195 217 202 178 164 153 151 124 131 157 152 162 175 172 167 167 165 164 166 169 171 174 175 175 176 180 184 184 182 179 176 181 185 185 185 187 190 194 190 183 183 181 179 185 178 124 62 169 183
217 230 294 326 306 209 279 293 291 285 289 247 201 159 192 192 134 188 245 312 41 65 147 142 63 336 16 53 15 108 103 85 102 122 141 199 203 190 202 212 193 169 153 147 129 121 148 162 179 185 178 174 170 164 164 168 171 173 176 178 178 179 183 186 186 185 181 179 184 188 186 184 185 188 189 183 177 185 190 190 195 190 169 142 175 182
259 193 184 260 287 250 237 286 254 190 225 289 229 179 159 144 129 143 159 73 42 18 271 108 55 318 316 115 226 112 87 56 61 177 206 217 223 195 179 194 202 161 146 149 141 138 169 190 189 183 179 175 165 161 166 172 175 175 177 180 181 181 184 187 187 186 185 187 187 184 181 182 183 180 187 191 185 187 196 200 204 198 174 164 186 199
248 180 172 203 255 342 271 273 236 168 139 346 234 141 123 120 121 131 136 98 72 268 272 83 87 318 324 334 348 63 73 88 169 229 231 223 233 225 191 163 163 165 159 155 142 150 195 208 193 174 169 169 161 165 172 174 175 177 178 180 182 183 185 188 188 188 192 193 187 182 179 182 187 184 187 195 191 190 199 199 201 198 175 165 189 212
176 179 195 199 205 18 296 261 223 147 118 255 201 119 112 112 115 123 104 80 96 263 335 76 91 46 331 334 31 77 122 203 201 214 224 218 225 223 181 142 170 177 161 144 147 182 208 206 173 139 154 168 165 171 178 177 177 181 181 182 184 185 186 189 190 191 194 190 183 182 181 180 186 190 191 194 193 199 209 201 190 190 178 170 183 206
160 185 200 192 151 100 247 238 187 128 108 264 107 97 93 96 105 108 78 55 37 34 34 100 104 58 306 316 31 143 189 217 209 211 214 207 210 199 165 165 174 147 128 149 175 198 207 186 154 156 171 172 165 171 179 182 182 182 183 184 184 185 187 190 192 194 194 190 186 187 186 182 184 193 195 195 198 204 208 194 175 181 183 186 190 195
190 217 194 171 152 193 227 208 164 146 133 109 90 85 74 73 73 81 78 37 20 48 46 147 125 126 272 304 338 194 197 206 215 217 212 201 202 188 167 159 128 119 148 182 190 197 195 174 163 167 170 167 167 174 179 181 182 180 182 185 184 186 190 191 194 195 193 192 192 190 188 189 191 197 197 196 202 203 195 180 172 180 190 195 197 200
246 236 178 172 188 183 180 156 168 181 144 111 85 71 60 51 46 79 89 56 39 11 283 200 163 170 207 298 278 281 246 218 226 235 223 200 183 177 175 155 140 151 176 188 192 191 172 161 162 162 161 162 166 174 178 176 178 183 185 186 186 188 191 193 196 196 193 193 195 194 195 198 199 202 202 201 206 206 194 182 180 187 196 199 201 205
322 346 199 237 212 134 103 113 167 181 139 111 81 74 59 12 6 52 38 52 69 286 272 298 270 176 107 288 284 305 286 249 232 231 227 175 144 156 191 162 150 165 180 184 186 173 138 136 153 161 160 160 162 168 174 172 176 187 189 186 186 189 192 196 196 196 196 197 199 202 204 206 207 207 208 208 210 211 207 198 195 201 204 201 201 206
337 300 282 296 289 124 103 70 28 15 63 84 78 84 72 13 7 37 11 31 114 248 269 319 337 35 100 1 341 326 308 296 254 224 221 170 152 168 181 154 146 162 173 180 178 158 126 117 147 176 170 163 165 168 170 170 177 186 187 186 188 190 193 196 197 198 201 203 205 209 210 210 213 213 215 218 217 216 217 215 214 217 215 206 203 214
344 304 315 344 323 122 117 113 88 313 68 111 121 117 108 96 73 1 232 180 222 192 207 353 34 38 298 353 343 319 303 294 266 247 240 164 156 167 161 142 150 160 165 170 162 141 129 141 173 198 191 170 166 169 169 173 180 182 184 188 191 192 194 196 199 202 204 207 210 214 213 211 215 221 223 224 224 223 225 224 225 228 227 220 219 224
37 318 296 133 279 326 116 156 165 159 111 107 186 110 120 168 149 178 197 164 191 164 48 358 46 48 318 349 334 315 304 296 296 343 23 102 131 141 129 124 139 145 144 149 150 146 153 171 180 190 189 167 163 174 175 175 181 184 186 190 193 196 196 197 201 204 205 208 212 214 214 213 219 228 230 230 233 236 235 232 229 230 232 231 230 230
59 288 245 212 196 137 125 192 144 103 77 114 348 81 132 207 143 142 178 147 159 124 39 343 58 72 173 49 5 349 341 349 21 37 54 70 69 80 84 79 91 109 129 143 152 150 151 168 179 184 181 169 171 182 183 180 181 185 189 193 197 200 198 198 202 206 207 210 213 215 216 218 222 230 235 240 244 245 240 236 234 233 235 236 236 235
46 289 267 282 100 169 177 181 133 109 124 144 119 173 224 187 121 118 93 42 70 87 40 347 43 20 9 62 20 15 30 26 27 42 64 74 74 80 84 88 107 116 128 139 146 142 133 151 172 182 180 180 182 183 185 186 187 189 191 193 198 200 199 200 205 206 207 211 215 218 221 222 226 232 238 244 249 248 241 236 237 237 236 237 238 238
125 300 277 156 208 239 177 114 93 75 82 111 151 245 248 82 84 102 99 23 36 77 27 2 63 13 7 54 22 36 57 45 24 36 60 80 102 111 105 114 127 119 108 108 110 113 122 143 159 168 174 181 182 180 183 187 190 193 195 196 198 199 200 204 208 207 206 209 215 220 224 226 230 236 240 243 250 255 247 240 240 238 233 235 238 238
123 20 289 235 176 206 117 83 34 334 6 96 174 271 70 85 14 38 88 97 80 97 52 21 54 31 21 30 36 50 60 52 31 40 59 77 96 103 104 115 123 117 118 124 113 107 115 123 132 154 169 169 165 173 182 185 191 194 195 200 203 206 209 212 214 212 209 212 218 222 224 225 230 237 242 244 251 258 253 246 246 244 239 237 236 234
121 93 290 280 128 116 84 77 157 299 330 352 15 15 73 131 141 111 116 141 118 114 123 62 23 2 6 359 30 47 34 18 25 44 63 75 90 99 107 118 122 123 129 131 122 116 106 104 119 148 160 147 147 167 176 180 193 199 199 207 214 218 223 225 225 222 220 222 225 228 228 228 231 235 240 245 250 253 251 247 247 249 248 241 234 232
85 95 271 296 353 63 18 224 181 192 223 222 28 15 148 69 80 94 49 73 116 122 145 108 66 328 325 346 0 21 350 346 14 54 66 72 83 89 98 112 119 123 125 120 111 103 94 95 109 130 135 127 143 174 185 188 201 211 215 221 225 229 234 235 231 226 227 230 233 236 234 234 238 239 242 246 249 250 248 249 249 248 249 245 238 235
68 89 229 299 346 22 260 241 178 187 191 166 165 190 179 145 112 85 42 321 104 115 148 132 106 299 294 353 323 324 351 349 8 55 72 72 74 77 83 97 107 115 117 114 103 93 87 90 92 90 90 102 133 169 188 206 214 218 226 228 227 227 229 230 224 221 226 230 234 236 236 239 245 247 248 249 250 250 249 252 254 248 245 248 247 245
143 100 81 291 281 243 260 357 132 186 190 150 168 161 141 134 117 119 151 210 76 77 87 96 82 293 281 312 299 324 41 31 8 47 78 73 66 72 73 78 90 101 103 98 94 89 83 90 93 85 81 86 106 205 202 215 217 215 220 220 218 220 227 234 231 222 223 230 239 243 246 252 254 253 253 252 251 251 252 257 259 250 245 248 255 259
63 64 30 313 297 293 309 358 27 92 85 46 323 74 130 170 153 144 159 144 106 100 104 76 53 286 291 344 349 14 60 67 26 46 80 79 64 68 69 73 83 87 85 78 73 73 77 87 95 94 96 113 175 224 230 240 239 239 245 238 230 230 237 244 242 228 223 235 250 258 261 261 259 255 252 253 254 254 256 260 259 253 248 248 251 254
355 7 51 38 359 350 348 351 351 359 29 21 308 324 269 176 120 108 111 84 76 88 121 107 115 260 287 351 24 37 76 105 92 56 73 81 74 71 69 72 77 76 71 65 61 65 77 89 100 104 114 136 161 186 210 237 249 251 252 244 238 233 232 238 244 239 237 250 255 254 252 253 255 254 252 254 257 257 255 255 256 254 250 250 250 246
89 69 100 102 84 43 3 328 288 305 339 339 323 327 320 131 114 119 118 75 71 65 69 88 142 187 276 317 63 73 98 117 113 90 79 79 78 79 77 76 76 75 70 64 63 66 73 87 99 104 112 125 137 151 167 189 219 223 206 197 207 225 239 256 270 253 239 246 240 229 229 237 244 249 253 255 252 250 251 253 259 263 261 261 263 259
100 54 98 135 150 176 193 231 244 224 59 343 325 329 330 48 109 112 101 96 136 123 54 25 139 139 176 225 154 134 124 118 114 104 97 92 88 85 85 85 82 78 72 64 66 68 66 67 71 83 102 118 130 148 161 155 143 127 106 99 108 133 201 234 227 214 214 222 228 223 223 227 235 242 250 255 249 248 255 261 265 267 267 271 276 274
91 23 343 140 159 210 189 193 258 78 91 8 327 327 331 14 87 91 107 145 149 116 86 205 147 131 155 178 154 166 153 123 117 116 113 110 106 101 97 96 93 87 79 69 68 69 70 68 64 72 92 114 127 135 147 146 128 104 90 89 95 103 113 126 142 164 184 204 225 232 230 231 237 243 251 259 256 254 259 258 255 259 267 281 287 286
106 7 294 105 42 351 72 129 110 87 84 8 331 328 345 45 88 95 111 149 145 121 144 168 152 138 150 153 154 187 166 126 124 128 126 123 120 114 105 98 95 91 86 80 74 72 73 72 68 70 79 90 97 101 110 116 113 104 96 90 87 88 96 103 101 96 92 89 92 102 150 204 218 231 251 268 257 246 248 251 259 277 297 298 285 278
107 279 286 90 67 13 3 50 101 90 77 15 345 348 24 61 81 90 98 112 101 103 130 143 138 137 147 147 153 172 153 123 124 130 132 133 130 122 110 103 99 96 92 89 83 75 71 65 61 67 72 75 79 85 91 95 97 97 93 89 83 80 87 95 93 89 86 80 75 74 74 79 96 128 279 4 22 257 285 296 306 317 311 295 279 274
74 274 267 79 65 359 349 12 77 88 86 36 355 6 46 70 78 90 105 107 97 99 118 129 128 130 139 137 139 147 149 129 129 138 141 139 134 122 112 108 105 100 93 89 83 70 57 47 47 56 63 70 81 87 87 85 89 92 90 86 83 80 86 94 93 88 83 80 77 74 72 71 72 75 70 65 69 65 47 33 32 29 304 326 2 330
57 338 316 68 65 320 329 20 59 93 97 60 352 2 24 69 97 102 112 122 124 128 128 126 134 149 163 145 132 141 153 144 140 144 134 121 119 115 111 107 100 95 91 86 77 65 56 50 52 56 61 73 85 89 87 86 87 89 88 84 80 79 82 82 81 80 76 76 78 77 76 76 76 79 82 85 86 85 85 89 89 86 79 67 61 62
84 72 350 79 86 294 307 44 20 62 78 21 298 328 333 82 117 97 64 92 130 138 140 152 166 161 156 147 134 139 151 149 145 138 119 109 105 102 103 102 98 97 95 87 72 62 60 61 62 64 70 81 88 89 90 89 85 83 87 85 80 77 75 74 74 73 71 74 79 81 85 88 87 88 90 90 91 89 86 82 76 70 68 69 70 68
84 102 140 116 111 265 288 32 28 38 102 234 249 261 273 187 127 113 103 112 127 134 132 135 141 142 146 145 136 136 139 132 122 111 110 114 109 101 98 98 102 103 92 81 72 63 65 69 70 73 78 86 92 93 90 86 82 84 87 86 82 79 77 75 74 71 70 75 80 82 87 92 93 91 89 86 85 83 81 78 75 70 67 72 80 79
90 98 126 97 112 206 317 46 53 246 227 253 309 354 345 86 108 99 76 79 131 130 124 123 132 142 137 125 120 117 109 102 100 94 96 105 107 107 103 96 100 103 93 85 76 62 69 79 80 77 78 85 93 93 89 86 88 90 87 84 83 83 82 79 74 69 69 73 78 80 83 88 92 91 87 84 83 84 88 92 91 86 80 82 87 86
120 118 119 89 115 144 56 93 157 244 270 331 24 55 56 83 108 101 64 337 318 125 132 134 129 123 116 110 108 107 102 95 87 81 90 103 105 107 108 105 105 105 105 95 77 67 78 87 87 81 79 85 92 91 89 91 93 92 88 86 84 83 82 80 74 70 68 70 73 75 79 87 93 90 86 86 85 86 90 96 99 98 97 96 94 92
111 114 89 69 134 134 124 147 228 314 333 346 31 96 72 39 57 103 122 271 328 29 104 130 125 121 120 117 116 114 105 94 78 53 61 101 113 113 114 116 114 106 97 85 77 80 87 88 84 81 80 81 83 88 93 94 93 91 88 88 87 85 82 78 74 70 67 68 70 71 73 85 96 95 91 90 88 86 87 92 99 101 100 98 96 94
79 96 126 135 167 94 102 95 20 11 307 275 285 322 14 26 353 348 50 166 341 30 95 135 136 135 131 129 133 125 102 89 88 67 54 100 113 111 107 105 99 92 86 82 81 82 85 85 82 80 78 76 75 82 93 95 93 90 87 85 87 87 84 79 75 72 69 68 70 71 72 82 100 105 99 95 94 91 89 93 99 101 101 99 98 96
48 48 96 100 43 52 101 116 180 188 234 247 263 302 357 64 13 5 49 204 244 134 128 136 138 138 136 139 141 123 100 99 129 169 153 110 104 98 98 92 82 79 78 79 83 83 83 84 82 79 77 75 73 78 89 96 95 90 84 82 83 83 81 78 74 72 72 71 73 75 74 80 101 117 111 102 103 102 98 99 101 101 101 100 99 98
29 22 50 83 94 131 114 125 227 202 232 252 246 256 209 128 75 74 125 226 199 152 138 124 127 135 137 131 120 110 111 134 160 178 157 112 95 87 93 93 88 85 81 79 83 85 86 85 82 77 74 72 73 77 84 90 91 87 82 79 77 75 75 77 75 71 70 72 74 75 74 74 89 114 122 116 114 114 114 113 110 108 109 108 105 106
2 14 33 119 142 137 124 148 252 232 240 266 279 293 171 89 75 106 211 223 154 134 125 107 113 128 136 119 108 104 99 108 130 139 120 102 91 83 88 91 90 89 85 84 85 86 85 83 80 77 73 72 75 78 83 87 87 84 83 82 77 73 71 74 76 74 70 69 70 72 70 69 76 92 110 118 119 120 124 129 127 120 118 120 120 116
339 354 358 78 110 123 129 136 268 275 252 262 290 311 39 92 134 211 218 160 121 123 115 99 99 106 104 95 99 112 101 93 108 116 103 96 94 87 86 90 90 88 87 87 87 88 87 84 82 80 75 72 73 74 78 84 83 80 81 80 79 81 78 74 73 71 66 64 66 68 66 63 67 78 89 99 104 104 108 125 141 146 146 153 156 150
183 167 323 295 158 122 66 74 200 251 239 228 270 305 41 127 206 225 124 105 118 121 117 108 101 103 102 98 105 117 113 108 111 108 96 92 91 86 86 90 91 90 89 88 86 88 89 85 82 83 79 75 74 71 73 78 79 77 77 74 73 80 84 79 76 76 71 63 61 66 64 56 59 71 78 79 79 84 89 97 114 140 175 197 201 201
39 134 232 258 193 122 111 190 208 227 245 227 211 219 177 182 215 57 70 97 117 119 123 119 110 112 114 113 113 114 114 114 114 106 97 93 92 90 90 93 94 94 95 95 92 91 90 87 84 84 82 76 72 69 70 77 85 87 79 71 70 74 75 71 67 73 82 70 55 58 61 52 53 63 72 73 67 66 71 71 77 98 133 180 201 210
292 197 181 202 213 172 181 209 220 276 315 303 238 117 77 75 68 72 85 108 119 128 136 126 119 123 123 119 118 117 115 114 109 105 103 103 101 101 98 98 101 101 100 100 99 95 91 89 88 87 84 77 68 62 62 69 89 105 98 85 76 68 63 56 44 45 51 41 33 34 19 317 280 22 48 62 60 60 65 63 62 72 91 131 158 155
265 249 171 156 193 171 138 251 67 53 12 349 8 49 62 48 36 50 72 91 111 128 132 128 130 135 131 125 122 120 119 117 109 105 107 106 101 101 100 98 100 106 110 110 109 108 106 102 99 96 92 85 74 64 58 58 73 92 94 82 69 54 37 23 10 356 18 23 23 30 27 7 286 258 261 273 342 12 42 58 56 62 66 68 72 91
304 321 96 89 72 49 347 328 45 69 26 345 10 38 50 49 36 40 75 90 101 114 118 121 123 124 123 122 121 121 121 118 112 105 103 104 101 100 100 95 94 104 113 115 114 114 112 110 112 115 115 106 96 88 71 54 61 75 70 51 42 30 19 19 15 357 126 34 18 14 19 20 10 328 273 245 244 260 266 266 282 38 61 48 33 29
312 333 9 63 70 73 312 356 74 75 29 359 16 38 62 63 43 39 89 99 99 101 105 112 116 118 119 120 120 122 122 117 115 114 111 110 110 109 106 101 98 102 109 112 113 110 100 90 88 91 105 112 102 98 97 65 59 66 60 50 31 7 5 20 29 45 70 35 16 5 360 3 4 359 344 291 249 245 249 254 260 263 259 255 336 343
305 323 321 82 78 71 55 61 83 87 55 29 26 34 61 77 63 59 80 87 90 92 90 89 96 108 121 124 122 121 121 122 125 123 119 118 117 116 116 113 109 111 113 113 117 120 114 95 70 58 62 54 21 10 158 120 68 13 352 114 114 349 349 1 19 32 29 11 4 358 352 350 345 343 349 345 294 254 252 257 265 271 273 271 263 261
331 342 357 93 87 63 39 31 47 94 88 66 55 49 45 68 90 81 76 76 81 89 90 85 78 81 99 114 118 118 118 123 128 125 123 132 137 136 137 136 135 139 141 137 142 151 152 144 128 132 207 311 0 24 140 0 343 318 321 96 191 318 324 321 336 347 345 345 346 339 333 338 338 333 342 355 351 288 266 267 273 276 276 276 273 268
331 316 349 116 114 83 61 43 29 70 92 105 115 114 154 147 81 78 78 79 81 84 89 91 88 81 81 98 111 116 118 125 129 128 128 142 149 152 157 161 165 170 171 171 175 176 174 179 193 208 226 254 281 239 269 310 312 293 282 298 294 283 270 258 300 320 317 316 324 324 313 311 320 327 333 349 7 3 313 294 293 289 283 279 276 273